• în România
  • Lista ţărilor
  • Pe 7 zile
  • Temperatura apei
  • Hartă satelitară
  • Meteo pe hartă
  • Widget-uri
  • user-avatar
    Intrare

    Meteo pe oră la Córdoba

    Astăzi, 22 Februarie, Miercuri

    Timp Temperatura Precipitaţii Vânt Presiune Umiditate
    00:00 +27°C° 0,2 mm 2 m/s 723 mmHg 72%
    01:00 +26°C° 0,2 mm 2 m/s 723 mmHg 73%
    02:00 +26°C° 0 mm 2 m/s 723 mmHg 74%
    03:00 +26°C° 0,1 mm 2 m/s 723 mmHg 73%
    04:00 +26°C° 0,1 mm 2 m/s 722 mmHg 73%
    05:00 +25°C° 0,1 mm 2 m/s 722 mmHg 73%
    06:00 +27°C° 0 mm 2 m/s 723 mmHg 66%
    07:00 +29°C° 0 mm 2 m/s 723 mmHg 59%
    08:00 +31°C° 0 mm 2 m/s 724 mmHg 53%
    09:00 +33°C° 0 mm 1 m/s 723 mmHg 45%
    10:00 +35°C° 0 mm 1 m/s 723 mmHg 37%
    11:00 +37°C° 0 mm 1 m/s 723 mmHg 29%
    12:00 +37°C° 0 mm 1 m/s 723 mmHg 27%
    13:00 +39°C° 0 mm 1 m/s 722 mmHg 25%
    14:00 +40°C° 0 mm 2 m/s 722 mmHg 22%
    15:00 +40°C° 0 mm 2 m/s 721 mmHg 23%
    16:00 +39°C° 0 mm 2 m/s 721 mmHg 24%
    17:00 +39°C° 0 mm 2 m/s 720 mmHg 25%
    18:00 +36°C° 0 mm 2 m/s 720 mmHg 31%
    19:00 +34°C° 0 mm 2 m/s 720 mmHg 37%
    20:00 +30°C° 0 mm 2 m/s 720 mmHg 43%
    21:00 +29°C° 0 mm 2 m/s 721 mmHg 46%
    22:00 +29°C° 0 mm 3 m/s 721 mmHg 50%
    23:00 +28°C° 0 mm 3 m/s 722 mmHg 53%

    Mâine, 23 Februarie, Joi

    Timp Temperatura Precipitaţii Vânt Presiune Umiditate
    00:00 +28°C° 0 mm 2 m/s 722 mmHg 56%
    01:00 +28°C° 0 mm 2 m/s 722 mmHg 58%
    02:00 +27°C° 0 mm 2 m/s 721 mmHg 61%
    03:00 +27°C° 0 mm 2 m/s 721 mmHg 61%
    04:00 +27°C° 0 mm 2 m/s 721 mmHg 62%
    05:00 +27°C° 0 mm 2 m/s 721 mmHg 63%
    06:00 +29°C° 0 mm 2 m/s 722 mmHg 58%
    07:00 +30°C° 0 mm 2 m/s 722 mmHg 52%
    08:00 +32°C° 0 mm 2 m/s 723 mmHg 47%
    09:00 +35°C° 0 mm 2 m/s 723 mmHg 41%
    10:00 +37°C° 0 mm 3 m/s 723 mmHg 35%
    11:00 +38°C° 0 mm 3 m/s 723 mmHg 29%
    12:00 +39°C° 0 mm 3 m/s 722 mmHg 27%
    13:00 +39°C° 0 mm 3 m/s 722 mmHg 26%
    14:00 +40°C° 0 mm 3 m/s 721 mmHg 25%
    15:00 +39°C° 0 mm 3 m/s 721 mmHg 26%
    16:00 +39°C° 0 mm 3 m/s 720 mmHg 27%
    17:00 +38°C° 0 mm 3 m/s 720 mmHg 27%
    18:00 +36°C° 0 mm 3 m/s 720 mmHg 32%
    19:00 +34°C° 0 mm 3 m/s 720 mmHg 37%
    20:00 +30°C° 0 mm 3 m/s 720 mmHg 41%
    21:00 +30°C° 0 mm 3 m/s 721 mmHg 45%
    22:00 +29°C° 0 mm 3 m/s 721 mmHg 48%
    23:00 +28°C° 0 mm 2 m/s 721 mmHg 51%

    Poimâine, 24 Februarie, Vineri

    Timp Temperatura Precipitaţii Vânt Presiune Umiditate
    00:00 +28°C° 0 mm 2 m/s 721 mmHg 54%
    01:00 +28°C° 0 mm 2 m/s 721 mmHg 56%
    02:00 +27°C° 0 mm 2 m/s 721 mmHg 59%
    03:00 +27°C° 0 mm 2 m/s 721 mmHg 61%
    04:00 +27°C° 0 mm 2 m/s 721 mmHg 63%
    05:00 +26°C° 0 mm 2 m/s 721 mmHg 65%
    06:00 +28°C° 0 mm 2 m/s 722 mmHg 59%
    07:00 +30°C° 0 mm 2 m/s 722 mmHg 54%
    08:00 +32°C° 0 mm 2 m/s 723 mmHg 48%
    09:00 +34°C° 0 mm 3 m/s 723 mmHg 43%
    10:00 +36°C° 0 mm 4 m/s 723 mmHg 37%
    11:00 +39°C° 0 mm 5 m/s 723 mmHg 32%
    12:00 +39°C° 0 mm 5 m/s 722 mmHg 31%
    13:00 +39°C° 0 mm 5 m/s 722 mmHg 30%
    14:00 +40°C° 0 mm 5 m/s 721 mmHg 30%
    15:00 +39°C° 0 mm 5 m/s 721 mmHg 30%
    16:00 +39°C° 0 mm 5 m/s 720 mmHg 30%
    17:00 +38°C° 0 mm 4 m/s 720 mmHg 30%
    18:00 +36°C° 0 mm 4 m/s 720 mmHg 35%
    19:00 +34°C° 0 mm 4 m/s 720 mmHg 40%
    20:00 +31°C° 0 mm 3 m/s 720 mmHg 45%
    21:00 +30°C° 0 mm 3 m/s 721 mmHg 48%
    22:00 +29°C° 0 mm 3 m/s 721 mmHg 51%
    23:00 +28°C° 0 mm 3 m/s 721 mmHg 54%

    25 Februarie, Sâmbătă

    Timp Temperatura Precipitaţii Vânt Presiune Umiditate
    00:00 +28°C° 0 mm 2 m/s 721 mmHg 56%
    01:00 +27°C° 0 mm 2 m/s 721 mmHg 57%
    02:00 +27°C° 0 mm 2 m/s 721 mmHg 59%
    03:00 +26°C° 0,1 mm 2 m/s 721 mmHg 63%
    04:00 +26°C° 0,1 mm 1 m/s 721 mmHg 67%
    05:00 +25°C° 0,1 mm 1 m/s 721 mmHg 71%
    06:00 +27°C° 0,1 mm 2 m/s 721 mmHg 65%
    07:00 +29°C° 0,1 mm 2 m/s 722 mmHg 58%
    08:00 +31°C° 0,1 mm 3 m/s 722 mmHg 52%
    09:00 +34°C° 0 mm 3 m/s 722 mmHg 46%
    10:00 +35°C° 0 mm 3 m/s 722 mmHg 40%
    11:00 +37°C° 0 mm 3 m/s 722 mmHg 34%
    12:00 +37°C° 0,2 mm 3 m/s 722 mmHg 32%
    13:00 +38°C° 0,2 mm 3 m/s 721 mmHg 31%
    14:00 +39°C° 0,2 mm 3 m/s 721 mmHg 29%
    15:00 +38°C° 0,2 mm 3 m/s 720 mmHg 30%
    16:00 +38°C° 0,2 mm 3 m/s 720 mmHg 31%
    17:00 +37°C° 0,2 mm 3 m/s 720 mmHg 31%
    18:00 +35°C° 0,1 mm 3 m/s 720 mmHg 36%
    19:00 +32°C° 0,1 mm 2 m/s 720 mmHg 41%
    20:00 +30°C° 0,1 mm 2 m/s 720 mmHg 46%
    21:00 +30°C° 0 mm 2 m/s 720 mmHg 47%
    22:00 +29°C° 0 mm 2 m/s 720 mmHg 49%
    23:00 +29°C° 0 mm 2 m/s 720 mmHg 51%

    26 Februarie, Duminică

    Timp Temperatura Precipitaţii Vânt Presiune Umiditate
    00:00 +28°C° 0,1 mm 2 m/s 720 mmHg 53%
    01:00 +28°C° 0,1 mm 2 m/s 720 mmHg 56%
    02:00 +27°C° 0,1 mm 2 m/s 720 mmHg 59%
    03:00 +27°C° 0,1 mm 2 m/s 720 mmHg 62%
    04:00 +26°C° 0,1 mm 2 m/s 720 mmHg 65%
    05:00 +26°C° 0,1 mm 2 m/s 720 mmHg 68%
    06:00 +27°C° 0,1 mm 3 m/s 720 mmHg 63%
    07:00 +29°C° 0,1 mm 3 m/s 721 mmHg 57%
    08:00 +32°C° 0,1 mm 4 m/s 722 mmHg 52%
    09:00 +33°C° 0,1 mm 4 m/s 722 mmHg 46%
    10:00 +35°C° 0,1 mm 5 m/s 722 mmHg 41%
    11:00 +37°C° 0,1 mm 5 m/s 722 mmHg 36%
    12:00 +37°C° 0,1 mm 5 m/s 721 mmHg 35%
    13:00 +37°C° 0,1 mm 4 m/s 721 mmHg 34%
    14:00 +38°C° 0,1 mm 4 m/s 720 mmHg 33%
    15:00 +37°C° 0,2 mm 4 m/s 720 mmHg 34%
    16:00 +37°C° 0,2 mm 4 m/s 719 mmHg 35%
    17:00 +36°C° 0,2 mm 4 m/s 719 mmHg 36%
    18:00 +34°C° 0,1 mm 3 m/s 719 mmHg 41%
    19:00 +31°C° 0,1 mm 3 m/s 720 mmHg 47%
    20:00 +29°C° 0,1 mm 3 m/s 720 mmHg 52%
    21:00 +29°C° 0,1 mm 3 m/s 720 mmHg 55%
    22:00 +28°C° 0,1 mm 3 m/s 720 mmHg 58%
    23:00 +27°C° 0,1 mm 3 m/s 720 mmHg 61%

    27 Februarie, Luni

    Timp Temperatura Precipitaţii Vânt Presiune Umiditate
    00:00 +27°C° 0 mm 3 m/s 720 mmHg 62%
    01:00 +26°C° 0 mm 3 m/s 720 mmHg 64%
    02:00 +26°C° 0 mm 3 m/s 720 mmHg 65%
    03:00 +26°C° 0,1 mm 2 m/s 720 mmHg 67%
    04:00 +26°C° 0,1 mm 2 m/s 720 mmHg 69%
    05:00 +25°C° 0,1 mm 2 m/s 720 mmHg 71%
    06:00 +27°C° 0,2 mm 2 m/s 721 mmHg 67%
    07:00 +28°C° 0,2 mm 2 m/s 721 mmHg 62%
    08:00 +30°C° 0,2 mm 2 m/s 722 mmHg 57%
    09:00 +32°C° 0,1 mm 2 m/s 722 mmHg 51%
    10:00 +35°C° 0,1 mm 3 m/s 722 mmHg 44%
    11:00 +37°C° 0,1 mm 4 m/s 722 mmHg 38%
    12:00 +37°C° 0,2 mm 4 m/s 721 mmHg 37%
    13:00 +37°C° 0,2 mm 4 m/s 720 mmHg 36%
    14:00 +38°C° 0,2 mm 4 m/s 720 mmHg 35%
    15:00 +37°C° 0,4 mm 3 m/s 720 mmHg 36%
    16:00 +37°C° 0,4 mm 3 m/s 720 mmHg 37%
    17:00 +36°C° 0,4 mm 2 m/s 719 mmHg 38%
    18:00 +34°C° 1,2 mm 2 m/s 719 mmHg 48%
    19:00 +31°C° 1,2 mm 2 m/s 719 mmHg 58%
    20:00 +28°C° 1,2 mm 2 m/s 719 mmHg 67%
    21:00 +27°C° 1,1 mm 2 m/s 719 mmHg 71%
    22:00 +27°C° 1,1 mm 2 m/s 720 mmHg 74%
    23:00 +26°C° 1,1 mm 2 m/s 720 mmHg 78%
    Arată mai mult